Regional Weather Roundup
Issued by NWS Sioux Falls, SD

Home | Current Version | Previous Version | Text Only | Print | Product List | Glossary Off
Versions: 1 2 3 4 5 6 7 8 9 10 11 12 13 14 15 16 17 18 19 20 21 22 23 24 25 26 27 28 29 30 31 32 33 34 35 36 37 38 39 40 41 42 43 44 45 46 47 48 49 50

209
ASUS43 KFSD 140702
RWRFSD

WEATHER ROUNDUP FOR SE SOUTH DAKOTA/SW MINNESOTA/NW IOWA
NATIONAL WEATHER SERVICE SIOUX FALLS SD
100 AM CST THU DEC 14 2017

NOTE: "FAIR" INDICATES FEW OR NO CLOUDS BELOW 12,000 FEET WITH NO
SIGNIFICANT WEATHER AND OR OBSTRUCTIONS TO VISIBILITY.


SDZ038>040-050-052>070-140800-
SOUTHEAST SOUTH DAKOTA

CITY           SKY/WX    TMP DP  RH WIND       PRES   REMARKS
BROOKINGS      CLOUDY    26  24  92 CALM      29.98R
CHAMBERLAIN    MOCLDY    33  28  83 W9        30.03F WCI  25
HURON          CLOUDY    33  27  78 NW8       29.99F WCI  26
MADISON        CLOUDY    28  28 100 N6        29.97S WCI  22
MITCHELL       CLOUDY    34  26  72 W6        30.01F WCI  29
SIOUX FALLS    CLOUDY    30  27  88 CALM      29.98F
WINNER         FAIR      28  23  81 SW7       30.04F WCI  21
YANKTON        CLOUDY    34  24  67 NW8       30.02S WCI  27
$$

MNZ071-072-080-081-089-090-097-098-140800-
SOUTHWEST MINNESOTA

CITY           SKY/WX    TMP DP  RH WIND       PRES   REMARKS
FAIRMONT       CLOUDY    21  16  81 N10       29.99S WCI  10
JACKSON        CLOUDY    23  18  80 MISG      29.97S
LUVERNE        CLOUDY    28  21  74 N7        29.99S WCI  21
MARSHALL       CLOUDY    21  16  81 NW10      30.01R WCI  10
MONTEVIDEO     CLOUDY    21  16  79 N6        30.01R WCI  14
PIPESTONE      CLOUDY    25  21  86 NE6       29.96F WCI  18
REDWOOD FALLS  CLOUDY    19  11  70 NE5       30.00S WCI  12
WINDOM           N/A     23  10  58 NW7       29.97S WCI  15
WORTHINGTON    CLOUDY    22  18  85 N15       29.98R WCI   9
$$

IAZ001>003-012>014-020>022-031-032-NEZ013-014-SDZ071-140800-
NORTHWEST IOWA

CITY           SKY/WX    TMP DP  RH WIND       PRES   REMARKS
CHEROKEE       CLOUDY    28  25  89 N5        29.99S WCI  23
DENISON        CLOUDY    30  25  80 N5        30.00R WCI  25
ESTHERVILLE    CLOUDY    23  18  81 N9        29.97S WCI  13
LE MARS        CLOUDY    30  27  86 N3        30.00S
ORANGE CITY    CLOUDY    30  27  86 N7        29.98S WCI  23
SHELDON        CLOUDY    27  23  86 N14       29.97S WCI  15
SIOUX CITY     CLOUDY    34  27  75 N9        30.01R WCI  27
SPENCER        CLOUDY    25  18  74 N14       29.98R WCI  13
STORM LAKE     CLOUDY    27  21  80 N14       29.97R WCI  15
$$

ABBREVIATIONS USED IN REMARKS
   TC - TEMPERATURE IN CELSIUS
  WCI - WIND CHILL INDEX
   HX - HEAT INDEX
  VSB - VISIBILITY





USA.gov is the U.S. government's official web portal to all federal, state and local government web resources and services.